Powrót do katalogu

STARLINK-36761

AktywnyŁącznośćVLEO
NORAD 67867·PAYLOAD·🇺🇸 United States

Wystrzelony Feb 20, 2026 z Vandenberg Space Force Base

Loading…

Następne Przeloty (najbliższe 24 godziny)

TLE

ŚwieżeSource: CelesTrak SupGP

Epoka: Sep 15, 2026, 03:57 UTC

1 67867C 26034T   26258.16506944  .00017641  00000+0  52122-3 0  2588
2 67867  53.1596  42.8105 0001008  79.1585 298.0284 15.34381752    12

Śledź STARLINK-36761 w czasie rzeczywistym z AllMySat

Download on the App Store